AirNav   Everest Fuels
 
 1517 users online  

8PS5 HMC Hangar Heliport
Hershey, Pennsylvania, USA

GOING TO HERSHEY?


FAA INFORMATION EFFECTIVE 13 AUGUST 2020

Location

FAA Identifier: 8PS5
Lat/Long: 40-15-42.9000N 076-41-04.9500W
40-15.715000N 076-41.082500W
40.2619167,-76.6847083
(estimated)
Elevation: 421 ft. / 128 m (estimated)
Variation: 10W (1985)
From city: 2 miles SW of HERSHEY, PA
Time zone: UTC -4 (UTC -5 during Standard Time)
Zip code: 17036

Heliport Operations

Heliport use: Private use, MEDICAL USE
Activation date: 04/1988
Control tower: no
ARTCC: NEW YORK CENTER
FSS: WILLIAMSPORT FLIGHT SERVICE STATION
Attendance: CONTINUOUS
Wind indicator: lighted
Segmented circle: no
Lights: ACTVT PERIMETER LGTS - 123.050.

Heliport Communications

UNICOM: 123.05
WX ASOS at MDT (5 nm SW): 118.8 (717-944-1372)
WX ASOS at CXY (8 nm W): PHONE 717-770-0880
WX ASOS at MUI (12 nm NE): 124.175 (717-861-2536)
WX AWOS-2 at 9D4 (17 nm E): 118.45 (717-866-2906)
WX ASOS at LNS (20 nm SE): 125.675 (717-569-8860)

Nearby radio navigation aids

VOR radial/distance  VOR name  Freq  Var
HARr108/17.8HARRISBURG VORTAC112.5010W
RAVr204/17.9RAVINE VORTAC114.6011W
LRPr304/19.9LANCASTER VOR/DME117.3009W
SEGr172/33.0SELINSGROVE VOR/DME110.4008W

 
NDB name  Hdg/Dist  Freq  Var  ID
ENOLA096/9.920411WMD -- -..
BELLGROVE220/12.132810WBZJ -... --.. .---

Heliport Services

Fuel available: A

Runway Information

Helipad H1

Dimensions: 80 x 80 ft. / 24 x 24 m
Surface: concrete
Latitude: 40-15.715000N
Longitude: 076-41.082500W
Elevation: 421.0 ft.
Traffic pattern: leftleft

Heliport Ownership and Management from official FAA records

Ownership: Privately-owned
Owner: THE MILTON S HERSHEY MED CNTR
BOX 850 500 UNIVERSITY DRIVE
HERSHEY, PA 17033
Phone 717-531-7365
Manager: DIRECTOR OF OPERATIONS
BOX 850 500 UNIVERSITY DRIVE
HERSHEY, PA 17033
Phone 717-531-5879

Heliport Operational Statistics

Aircraft based on the field: 2
Helicopters: 2
    

Additional Remarks

A40 PERIMETER LGTS
40 FT CIRC TLOF MARKED.
FOR CD CTC HARRISBURG APCH AT 800-932-0712.

Instrument Procedures

There are no published instrument procedures at 8PS5.

Some nearby airports with instrument procedures:

58N - Reigle Field Airport (5 nm E)
KMDT - Harrisburg International Airport (5 nm SW)
KCXY - Capital City Airport (8 nm W)
N71 - Donegal Springs Airpark (11 nm SE)
KMUI - Muir Army Airfield (Fort Indiantown Gap) (12 nm NE)
08N - Keller Brothers Airport (16 nm E)
9D4 - Deck Airport (17 nm E)
74N - Bendigo Airport (19 nm N)
KLNS - Lancaster Airport (20 nm SE)
 
Loc | Ops | Rwys | IFR | FBO | Links
Com | Nav | Svcs | Stats | Notes
Area around 8PS5 (HMC Hangar Heliport)
 
Road maps at: MapQuest Bing Google
 
Aerial photo
No photo
 
Sectional chart

 
Airport distance calculator
Flying to HMC Hangar Heliport? Find the distance to fly.

From to 8PS5

Sunrise and sunset
Times for 13-Aug-2020
 Local
(UTC-4)
 Zulu
(UTC)
Morning civil twilight05:4909:49
Sunrise06:1810:18
Sunset20:0500:05
Evening civil twilight20:3400:34

Current date and time
Zulu (UTC)  13-Aug-2020 19:50:42
Local (UTC-4)  13-Aug-2020 15:50:42
 
METAR
KMDT 
5nm SW 
131856Z 15006KT 10SM SCT027 SCT034 BKN160 30/22 A3005 RMK AO2 SLP174 T03000222
KCXY 
8nm W 
131856Z 10006KT 10SM FEW045 30/21 A3006 RMK AO2 SLP177 T03000206
KMUI 
11nm NE 
131856Z 09004KT 10SM FEW040 BKN170 BKN200 28/21 A3008 RMK AO2A SLP185 WND DATA ESTMD T02800213 $
KLNS 
20nm SE 
131853Z 07003KT 10SM SCT045 28/22 A3008 RMK AO2 SLP181 T02780217
TAF
KMDT 
5nm SW 
131740Z 1318/1418 VRB04KT P6SM VCSH SCT050 BKN130 FM131930 10005KT P6SM VCTS BKN040CB BKN120 FM140100 11002KT 6SM HZ SCT010 BKN060 TEMPO 1408/1412 3SM BR OVC010 FM141200 06007KT P6SM BKN022 BKN050
KMUI 
11nm NE 
131100Z 1311/1417 03006KT 9999 BKN040 QNH3005INS TEMPO 1320/1324 03015G25KT 8000 -TSRA BKN030CB OVC040 BECMG 1323/1324 03006KT 9999 BKN030 QNH3000INS TX26/1321Z TN21/1311Z
KLNS 
20nm SE 
131740Z 1318/1418 VRB03KT P6SM BKN080 BKN130 FM131930 10005KT P6SM VCTS BKN040CB BKN120 FM140100 11002KT 6SM HZ SCT010 BKN060 TEMPO 1408/1412 3SM BR OVC010 FM141200 06007KT P6SM BKN022 BKN050
NOTAMs
Click for the latest NOTAMs
NOTAMs are issued by the DoD/FAA and will open in a separate window not controlled by AirNav.

 

 
 

Would you like to see your business listed on this page?

 If your business provides an interesting product or service to pilots, flight crews, aircraft, or users of the HMC Hangar Heliport, you should consider listing it here.  To start the listing process, click on the button below
 
Add a business
 

Other Pages about HMC Hangar Heliport

Update a link
 
Copyright © AirNav, LLC. All rights reserved. Privacy Policy  Contact